Location: Bad Dürkheim
(49.4618°N, 8.1724°E)
Time: 16:34:23
(UTC+00:00)

Meteor 2-10 Rocket - Pass Details

Date: 14 June 2025
Orbit: 732 x 882 km, 81.2° (Epoch: 19 July)

Event Time Altitude Azimuth Distance (km) Brightness Sun altitude
Rises 20:41:27 0° 345° (NNW) 3,479 8.3 -8.4°
Reaches altitude 10° 20:43:57 10° 342° (NNW) 2,524 7.5 -8.6°
Maximum altitude 20:49:35 60° 264° (W) 974 4.2 -9.2°
Drops below altitude 10° 20:54:59 10° 186° (S) 2,423 5.6 -9.7°
Enters shadow 20:56:10 - 184° (S) 2,867 6.0 -9.8°
